Content
SEND FEEDBACK

Daily
Averages
Monthly
Summary
United States of America

ST. LUCIE, FLORIDA


Home > North America > United States > Florida
Elevation: 24 feet     Latitude: 27 29N     Longitude: 080 22W

WEATHER
 
SELECT A DAY
Number of Records: 179,389;   Date Range: 1/1/95 - 11/27/14
 
SHARE

PRINT THIS DATA

[ ← Previous Day ]
WEATHER ALMANAC - FEBRUARY 13, 2013
[ Next Day → ]
[ °C ]   °F
Weather ElementAverageHighLow
Temperature75.7 °F87.1 °F (12:53 pm)69.1 °F (1:53 am)
Dewpoint65.8 °F70 °F (8:53 am)57.9 °F (11:53 pm)
Humidity73.7 %94 % (7:30 am)44 % (2:53 pm)
Barometer29.95 in30.00 in (8:34 am)29.87 in (2:53 pm)
Wind Speed10.3 mph18.4 mph (1:53 pm)
Wind Gust26.5 mph (1:53 pm)
Weather ElementAverage
Visibility8.5 mi
Wind DirectionSW (222.5 °)

Weather ElementTotal
Precipitation---
Cooling Degree Days13.1 (Base 65)
Growing Degree Days28.1 (Base 50)
Averaged from 28 records on February 13, 2013
WEATHER CONDITIONS BREAKOUT
WIND DIRECTION BREAKOUT
WEATHER BY HOUR - FEBRUARY 13, 2013
[ °C ]   °F
Local TimeTemperatureDewpointHumidityBarometerVisibilityWind DirectionWind SpeedGust SpeedPrecipitationEventsConditions
1:53 AM69.1 °F66.0 °F90 %29.98 in9.0 miSouth (190°)4.6 mphClear
2:53 AM69.1 °F66.0 °F90 %29.97 in7.0 miSouth (180°)6.9 mphPartly Cloudy
3:53 AM69.1 °F66.9 °F93 %29.96 in7.0 miSouth (190°)6.9 mphClear
4:53 AM70.0 °F66.9 °F90 %29.96 in7.0 miSSW (200°)8.1 mphClear
5:53 AM70.0 °F66.9 °F90 %29.96 in6.0 miSouth (190°)8.1 mphPartly Cloudy
6:18 AM69.8 °F66.2 °F88 %29.98 in6.0 miWest (270°)6.9 mphMostly Cloudy
6:53 AM70.0 °F68.0 °F93 %29.97 in6.0 miSSW (210°)8.1 mphOvercast
7:30 AM69.8 °F68.0 °F94 %29.98 in2.5 miSSW (200°)9.2 mphOvercast
7:53 AM70.0 °F68.0 °F93 %29.98 in4.0 miSSW (210°)8.1 mphOvercast
8:34 AM71.6 °F69.8 °F94 %30.00 in6.0 miSSW (200°)12.7 mph18.4 mphOvercast
8:53 AM72.0 °F70.0 °F93 %30.00 in7.0 miSouth (190°)11.5 mph19.6 mphOvercast
9:53 AM77.0 °F70.0 °F79 %29.99 in10.0 miSSW (200°)12.7 mphMostly Cloudy
9:58 AM77.0 °F69.8 °F78 %29.99 in10.0 miSSW (200°)12.7 mphScattered Clouds
10:53 AM81.0 °F69.1 °F67 %29.98 in10.0 miSouth (190°)13.8 mph19.6 mphScattered Clouds
11:53 AM82.9 °F66.9 °F58 %29.96 in10.0 miSSW (210°)16.1 mph23.0 mphScattered Clouds
12:53 PM87.1 °F66.0 °F49 %29.93 in10.0 miWSW (240°)16.1 mph24.2 mphPartly Cloudy
1:53 PM84.9 °F63.0 °F48 %29.90 in10.0 miSW (220°)18.4 mph26.5 mphScattered Clouds
2:53 PM87.1 °F63.0 °F44 %29.87 in10.0 miSW (230°)17.3 mph25.3 mphClear
3:53 PM87.1 °F63.0 °F44 %29.87 in10.0 miSW (230°)13.8 mph26.5 mphClear
4:53 PM84.9 °F62.1 °F46 %29.87 in10.0 miSW (220°)12.7 mph23.0 mphScattered Clouds
5:53 PM82.9 °F63.0 °F51 %29.87 in10.0 miSW (220°)15.0 mph20.7 mphPartly Cloudy
6:53 PM79.0 °F64.0 °F60 %29.89 in10.0 miSW (220°)6.9 mphClear
7:53 PM75.9 °F64.0 °F67 %29.90 in10.0 miSW (230°)5.8 mphClear
8:53 PM73.0 °F64.0 °F73 %29.94 in10.0 miWSW (240°)6.9 mphClear
9:53 PM73.9 °F66.0 °F76 %29.94 in10.0 miWSW (240°)8.1 mphClear
10:53 PM73.0 °F66.9 °F81 %29.96 in10.0 miWSW (240°)5.8 mphClear
11:46 PM71.6 °F60.8 °F69 %29.98 in10.0 miNNW (330°)9.2 mph18.4 mphOvercast
11:53 PM70.0 °F57.9 °F65 %29.99 in10.0 miNNW (340°)5.8 mphOvercast
Hourly data recorded from KFPR, located miles away from St. Lucie, Florida







STORIES FROM OUR PARTNERS